STARLINK-4083 (52832 NORAD) Tracking and Keplerian Element Data

This shows tracking and keplerian element data for the satellite.

Feedback or suggestion? Click here.




ElementValue
Catalog52832
NameSTARLINK-4083
Epoch Orbit1614
Epoch Day270.25001157
Epoch Year2022
RAAN287.96
Inclination53.214
Eccentricity0.00019
Argument of Perigee40.9537
Mean Anonmoly137.3885
Mean Motion15.08844456
Decay Rate-0.00021872
L11 52832U 22062C 22270.25001157 -.00021872 00000+0 -13601-2 0 9990
L22 52832 53.2140 287.9600 0001900 40.9537 137.3885 15.08844456 16149

Live tracking and technical data element details for STARLINK-4083 (NORAD 52832). STARLINK-4083 can be tracked NOW for your location showing map with azimuth and elevation plus other details from your city location.

Track the satellite on the map from your city or location and see movement details for azimuth, elevation, latitude, longitude, range, height, and movement on the map or in text.







IsCatalogInMostPopularTable: catalog: 52832, numindb: 9
Update: records affected: 1



GetName: 52832 STARLINK-4083

Hit Count: updated at: Thu, 06 Oct 2022 03:40:19 GMT